Tracking 28790 objects as of 19-Apr-2024
HD Live streaming from Space Station
objects crossing your sky now

OV1-21

Track OV1-21 now!
10-day predictions
OV1-21 is classified as:


NORAD ID: 5397
Int'l Code: 1971-067B
Perigee: 781.2 km
Apogee: 898.5 km
Inclination: 87.6 °
Period: 101.6 minutes
Semi major axis: 7210 km
RCS: 2.316 m2 (large)
Launch date: August 7, 1971
Source: United States (US)
Launch site: AIR FORCE WESTERN TEST RANGE (AFWTR)
Your satellite tracking list
Your tracking list is empty




NASA's NSSDC Master Catalog

Two Line Element Set (TLE):
1  5397U 71067B   24109.55618202  .00000512  00000-0  23482-3 0  9990
2  5397  87.6208 284.7464 0081303 198.0912 161.7380 14.17822159722756
Source of the keplerian elements: AFSPC